Regional Weather Roundup
Issued by NWS Little Rock, AR

Home | Current Version | Previous Version | Graphics & Text | Print | Product List | Glossary On
Versions: 1 2 3 4 5 6 7 8 9 10 11 12 13 14 15 16 17 18 19 20 21 22 23 24 25 26 27
000
ASUS44 KLZK 250205
RWRLZK

WEATHER ROUNDUP FOR ARKANSAS
NATIONAL WEATHER SERVICE LITTLE ROCK AR
900 PM CDT FRI OCT 24 2014

NOTE: "FAIR" INDICATES FEW OR NO CLOUDS BELOW 12,000 FEET WITH NO
SIGNIFICANT WEATHER AND/OR OBSTRUCTIONS TO VISIBILITY.

ARZ001-003-010-029-250300-
NORTHWEST ARKANSAS

CITY           SKY/WX    TMP DP  RH WIND       PRES   REMARKS
FAYETTEVILLE   CLEAR     57  57 100 CALM      30.09S
FORT SMITH     CLEAR     66  61  84 CALM      30.07S
HARRISON       CLEAR     63  58  83 CALM      30.08S
BENTONVILLE    PTCLDY    63  57  82 S5        30.09R
ROGERS         PTCLDY    64  58  80 S8        30.09S
SILOAM SPGS    CLEAR     63  54  72 S5        30.09S
HIGHFILL       CLEAR     62  59  90 S3        30.08S
SPRINGDALE     CLEAR     64  59  82 SE3       30.10F
$$

ARZ004-005-016-250300-
NORTH CENTRAL ARKANSAS

CITY           SKY/WX    TMP DP  RH WIND       PRES   REMARKS
BATESVILLE     PTCLDY    64  55  72 CALM      30.09R
FLIPPIN        CLEAR     61  54  77 CALM      30.07S
MTN HOME       PTCLDY    62  58  86 S5        30.06S
$$

ARZ040-041-250300-
WEST CENTRAL ARKANSAS

CITY           SKY/WX    TMP DP  RH WIND       PRES   REMARKS
MENA           PTCLDY    63  59  88 CALM      30.13S
MOUNT IDA      PTCLDY    61  59  93 CALM      30.09R
$$

ARZ009-017-025-026-028-250300-
NORTHEAST ARKANSAS

CITY           SKY/WX    TMP DP  RH WIND       PRES   REMARKS
CORNING        FAIR      59  57  94 S6        30.07S
JONESBORO      CLEAR     61  56  83 CALM      30.07S
NEWPORT        CLEAR     60  55  83 SE7       30.09S
WALNUT RIDGE   PTCLDY    61  54  77 S6        30.06S
BLYTHEVILLE    PTCLDY    60  55  83 S5        30.08S
$$

ARZ022-023-033-042-044-250300-
CENTRAL ARKANSAS

CITY           SKY/WX    TMP DP  RH WIND       PRES   REMARKS
LITTLE ROCK    PTCLDY    65  55  70 CALM      30.10S
N LITTLE ROCK  PTCLDY    64  58  81 S5        30.10S
JACKSONVILLE   CLEAR     66  57  74 VRB3      30.09S
SEARCY         CLEAR     57  56  96 CALM      30.11R
HOT SPRINGS    CLEAR     61  58  90 CALM      30.11S
RUSSELLVILLE   PTCLDY    61  59  93 CALM      30.08R
$$

ARZ036-250300-
EAST ARKANSAS

CITY           SKY/WX    TMP DP  RH WIND       PRES   REMARKS
WEST MEMPHIS   CLEAR     61  56  83 CALM      30.08S
$$

ARZ050-053-066-070-073-250300-
SOUTHWEST ARKANSAS

CITY           SKY/WX    TMP DP  RH WIND       PRES   REMARKS
ARKADELPHIA    FAIR      59  59 100 CALM      30.11S
CAMDEN         PTCLDY    55  54  94 CALM      30.11S
TEXARKANA      PTCLDY    65  58  78 S5        30.11R
EL DORADO      PTCLDY    55  54  96 CALM      30.12S FOG
DE QUEEN       FOG       61  60  97 CALM      30.10R VSB 1/4
$$

ARZ056-057-069-250300-
SOUTHEAST ARKANSAS

CITY           SKY/WX    TMP DP  RH WIND       PRES   REMARKS
PINE BLUFF     PTCLDY    60  56  86 CALM      30.11S
STUTTGART      CLEAR     64  54  68 S5        30.11S
MONTICELLO     CLEAR     58  55  90 CALM      30.11S

$$





USA.gov is the U.S. government's official web portal to all federal, state and local government web resources and services.